Location: Passau
(48.5830°N, 13.4830°E)
Time: 20:32:00
(UTC+02:00)

S-56A Canister/Altair - Pass Details

Date: 21 May 2024
Orbit: 637 x 2489 km, 38.9° (Epoch: 15 June)

Event Time Altitude Azimuth Distance (km) Brightness Sun altitude
Rises 05:40:05 0° 195° (SSW) 5,976 11.7 2.3°
Reaches altitude 10° 05:46:06 10° 179° (S) 4,726 11.3 3.2°
Maximum altitude 05:53:15 17° 145° (SE) 3,751 11.2 4.3°
Drops below altitude 10° 05:59:17 10° 109° (ESE) 3,879 11.9 5.2°
Sets 06:03:25 0° 91° (E) 4,523 12.8 5.8°
